Location: Ferchesar
(52.6477°N, 12.4298°E)
Time: 02:22:07
(UTC+01:00)

Transit 2A - Pass Details

Date: 09 December 2021
Orbit: 591 x 967 km, 66.7° (Epoch: 17 January)

Event Time Altitude Azimuth Distance (km) Brightness Sun altitude
Exits shadow 07:13:04 - 320° (NW) 2,960 8.4 -8.0°
Reaches altitude 10° 07:13:45 10° 319° (NW) 2,716 8.3 -7.9°
Maximum altitude 07:20:11 84° 234° (SW) 969 6.5 -7.1°
Drops below altitude 10° 07:26:23 10° 146° (SE) 2,618 10.0 -6.2°
Sets 07:28:50 0° 146° (SE) 3,517 10.8 -5.9°
